| time (UTC) | temp F | wind direction | speed MPH | gust MPH | rain 1hr in | rain 24hr in | rain mn in | humidity % | barometer mb |
| 20260507222030 | 51 | 94 | 2.0 | 4.0 | 0.00 | 0.00 | 0.00 | 88 | 1020.1 |
| 20260507221029 | 51 | 70 | 2.0 | 3.0 | 0.00 | 0.00 | 0.00 | 88 | 1020.2 |
| 20260507220047 | 51 | 125 | 2.0 | 2.0 | 0.00 | 0.00 | 0.00 | 87 | 1020.2 |
| 20260507215026 | 51 | 104 | 2.0 | 3.0 | 0.00 | 0.00 | 0.00 | 86 | 1020.2 |
| 20260507214046 | 51 | 121 | 2.0 | 3.0 | 0.00 | 0.00 | 0.00 | 86 | 1020.0 |
| 20260507213024 | 51 | 114 | 2.0 | 2.0 | 0.00 | 0.00 | 0.00 | 85 | 1020.0 |
| 20260507212023 | 52 | 93 | 2.0 | 3.0 | 0.00 | 0.00 | 0.00 | 85 | 1020.0 |
| 20260507211021 | 52 | 97 | 3.0 | 4.0 | 0.00 | 0.00 | 0.00 | 83 | 1019.9 |
| 20260507210120 | 52 | 154 | 3.0 | 3.0 | 0.00 | 0.00 | 0.00 | 80 | 1019.9 |
| 20260507205100 | 52 | 144 | 2.0 | 4.0 | 0.00 | 0.00 | 0.00 | 83 | 1020.0 |
| 20260507204019 | 52 | 144 | 3.0 | 5.0 | 0.00 | 0.00 | 0.00 | 81 | 1020.0 |
| 20260507203017 | 53 | 129 | 2.0 | 3.0 | 0.00 | 0.00 | 0.00 | 82 | 1019.9 |
| 20260507202016 | 53 | 116 | 2.0 | 3.0 | 0.00 | 0.00 | 0.00 | 80 | 1019.8 |
| 20260507201115 | 53 | 130 | 1.0 | 2.0 | 0.00 | 0.00 | 0.00 | 81 | 1019.7 |
| 20260507200114 | 54 | 83 | 3.0 | 5.0 | 0.00 | 0.00 | 0.00 | 76 | 1019.7 |
| 20260507195113 | 54 | 133 | 1.0 | 2.0 | 0.00 | 0.00 | 0.00 | 75 | 1019.6 |
| 20260507194111 | 54 | 138 | 0.0 | 2.0 | 0.00 | 0.00 | 0.00 | 75 | 1019.5 |
| 20260507193110 | 55 | 125 | 2.0 | 2.0 | 0.00 | 0.00 | 0.00 | 74 | 1019.4 |
| 20260507192108 | 55 | 83 | 2.0 | 3.0 | 0.00 | 0.00 | 0.00 | 73 | 1019.4 |
| 20260507191128 | 56 | 126 | 3.0 | 4.0 | 0.00 | 0.00 | 0.00 | 72 | 1019.4 |
| 20260507190106 | 56 | 115 | 4.0 | 4.0 | 0.00 | 0.00 | 0.00 | 71 | 1019.2 |
| 20260507185105 | 0 | 0.0 | 0.0 | 0.00 | 0.00 | 0.00 | 1019.1 | ||
| 20260507184103 | 0 | 0.0 | 0.0 | 0.00 | 0.00 | 0.00 | 1019.2 | ||
| 20260507183103 | 58 | 5 | 4.0 | 6.0 | 0.00 | 0.00 | 0.00 | 63 | 1019.2 |
| 20260507182101 | 58 | 12 | 4.0 | 6.0 | 0.00 | 0.00 | 0.00 | 63 | 1019.1 |
| 20260507181100 | 59 | 37 | 4.0 | 7.0 | 0.00 | 0.00 | 0.00 | 61 | 1019.1 |
| 20260507180059 | 60 | 29 | 6.0 | 9.0 | 0.00 | 0.00 | 0.00 | 60 | 1018.9 |
| 20260507175057 | 60 | 29 | 6.0 | 9.0 | 0.00 | 0.00 | 0.00 | 59 | 1018.8 |
| 20260507174056 | 60 | 34 | 6.0 | 9.0 | 0.00 | 0.00 | 0.00 | 58 | 1018.8 |
| 20260507173116 | 60 | 25 | 7.0 | 10.0 | 0.00 | 0.00 | 0.00 | 57 | 1018.8 |
| 20260507172054 | 61 | 25 | 9.0 | 13.0 | 0.00 | 0.00 | 0.00 | 56 | 1018.7 |
| 20260507171052 | 61 | 20 | 7.0 | 14.0 | 0.00 | 0.00 | 0.00 | 55 | 1018.6 |
| 20260507170052 | 61 | 36 | 6.0 | 10.0 | 0.00 | 0.00 | 0.00 | 56 | 1018.5 |
| 20260507165051 | 61 | 35 | 5.0 | 6.0 | 0.00 | 0.00 | 0.00 | 56 | 1018.5 |
| 20260507164049 | 61 | 40 | 5.0 | 9.0 | 0.00 | 0.00 | 0.00 | 55 | 1018.5 |
| 20260507163048 | 62 | 43 | 6.0 | 11.0 | 0.00 | 0.00 | 0.00 | 54 | 1018.5 |
| 20260507162047 | 63 | 343 | 4.0 | 7.0 | 0.00 | 0.00 | 0.00 | 54 | 1018.4 |
| 20260507161045 | 63 | 18 | 6.0 | 9.0 | 0.00 | 0.00 | 0.00 | 55 | 1018.5 |
| 20260507160044 | 61 | 0 | 4.0 | 8.0 | 0.00 | 0.00 | 0.00 | 57 | 1018.4 |
| 20260507155103 | 61 | 3 | 5.0 | 8.0 | 0.00 | 0.00 | 0.00 | 58 | 1018.5 |
| 20260507154042 | 62 | 349 | 5.0 | 8.0 | 0.00 | 0.00 | 0.00 | 55 | 1018.4 |
| 20260507153042 | 61 | 30 | 3.0 | 5.0 | 0.00 | 0.00 | 0.00 | 55 | 1018.4 |
| 20260507152040 | 61 | 31 | 4.0 | 6.0 | 0.00 | 0.00 | 0.00 | 57 | 1018.4 |
| 20260507151058 | 62 | 358 | 5.0 | 6.0 | 0.00 | 0.00 | 0.00 | 57 | 1018.6 |
| 20260507150037 | 62 | 15 | 7.0 | 10.0 | 0.00 | 0.00 | 0.00 | 57 | 1018.5 |
| 20260507145056 | 61 | 34 | 7.0 | 13.0 | 0.00 | 0.00 | 0.00 | 59 | 1018.5 |
| 20260507144034 | 62 | 336 | 2.0 | 7.0 | 0.00 | 0.00 | 0.00 | 58 | 1018.5 |
| 20260507143034 | 61 | 12 | 5.0 | 9.0 | 0.00 | 0.00 | 0.00 | 58 | 1018.5 |
| 20260507142032 | 61 | 329 | 4.0 | 8.0 | 0.00 | 0.00 | 0.00 | 59 | 1018.6 |
| 20260507141031 | 60 | 218 | 2.0 | 4.0 | 0.00 | 0.00 | 0.00 | 60 | 1018.5 |
| 20260507140030 | 60 | 48 | 3.0 | 6.0 | 0.00 | 0.00 | 0.00 | 62 | 1018.7 |
| 20260507135109 | 58 | 44 | 3.0 | 5.0 | 0.00 | 0.00 | 0.00 | 65 | 1018.8 |
| 20260507134028 | 57 | 67 | 5.0 | 7.0 | 0.00 | 0.00 | 0.00 | 68 | 1018.9 |
| 20260507133026 | 57 | 48 | 5.0 | 7.0 | 0.00 | 0.00 | 0.00 | 72 | 1019.0 |
| 20260507132046 | 56 | 50 | 6.0 | 9.0 | 0.00 | 0.00 | 0.00 | 76 | 1019.1 |
| 20260507131104 | 54 | 47 | 4.0 | 6.0 | 0.00 | 0.00 | 0.00 | 85 | 1019.2 |
| 20260507130023 | 57 | 330 | 6.0 | 15.0 | 0.00 | 0.00 | 0.00 | 76 | 1019.2 |
| 20260507125022 | 59 | 335 | 4.0 | 9.0 | 0.00 | 0.00 | 0.00 | 64 | 1019.0 |
| 20260507124020 | 59 | 25 | 5.0 | 8.0 | 0.00 | 0.00 | 0.00 | 63 | 1018.9 |
| 20260507123019 | 0 | 0.0 | 0.0 | 0.00 | 0.00 | 0.00 | 1018.9 | ||
| 20260507122039 | 0 | 0.0 | 0.0 | 0.00 | 0.00 | 0.00 | 1018.8 | ||
| 20260507121017 | 0 | 0.0 | 0.0 | 0.00 | 0.00 | 0.00 | 1018.9 | ||
| 20260507120116 | 0 | 0.0 | 0.0 | 0.00 | 0.00 | 0.00 | 1019.0 | ||
| 20260507115115 | 0 | 0.0 | 0.0 | 0.00 | 0.00 | 0.00 | 1019.0 | ||
| 20260507114113 | 0 | 0.0 | 0.0 | 0.00 | 0.00 | 0.00 | 1019.0 | ||
| 20260507113112 | 59 | 56 | 8.0 | 11.0 | 0.00 | 0.00 | 0.00 | 67 | 1019.2 |
| 20260507112111 | 59 | 227 | 2.0 | 4.0 | 0.00 | 0.00 | 0.00 | 63 | 1019.1 |
| 20260507111110 | 59 | 194 | 3.0 | 6.0 | 0.00 | 0.00 | 0.00 | 61 | 1019.2 |
| 20260507110109 | 60 | 179 | 6.0 | 7.0 | 0.00 | 0.00 | 0.00 | 61 | 1019.1 |
| 20260507105128 | 58 | 224 | 3.0 | 6.0 | 0.00 | 0.00 | 0.00 | 63 | 1019.3 |
| 20260507104107 | 57 | 35 | 3.0 | 3.0 | 0.00 | 0.00 | 0.00 | 66 | 1019.3 |
| 20260507103105 | 58 | 205 | 4.0 | 8.0 | 0.00 | 0.00 | 0.00 | 67 | 1019.3 |
| 20260507102105 | 57 | 199 | 3.0 | 4.0 | 0.00 | 0.00 | 0.00 | 71 | 1019.4 |
| 20260507101103 | 56 | 203 | 3.0 | 8.0 | 0.00 | 0.00 | 0.00 | 71 | 1019.4 |
| 20260507095100 | 56 | 19 | 3.0 | 6.0 | 0.00 | 0.00 | 0.00 | 75 | 1019.5 |
| 20260507094120 | 55 | 223 | 5.0 | 7.0 | 0.00 | 0.00 | 0.00 | 75 | 1019.5 |
| 20260507093058 | 54 | 169 | 2.0 | 5.0 | 0.00 | 0.00 | 0.00 | 78 | 1019.5 |
| 20260507092057 | 54 | 230 | 3.0 | 5.0 | 0.00 | 0.00 | 0.00 | 80 | 1019.6 |
| 20260507091056 | 52 | 235 | 2.0 | 3.0 | 0.00 | 0.00 | 0.00 | 86 | 1019.5 |
| 20260507090055 | 52 | 247 | 4.0 | 8.0 | 0.00 | 0.00 | 0.00 | 84 | 1019.6 |
| 20260507085053 | 52 | 298 | 3.0 | 6.0 | 0.00 | 0.00 | 0.00 | 85 | 1019.5 |
| 20260507084052 | 51 | 321 | 3.0 | 6.0 | 0.00 | 0.00 | 0.00 | 88 | 1019.5 |
| 20260507083051 | 51 | 0.0 | 4.0 | 0.00 | 0.00 | 0.00 | 87 | 1019.5 | |
| 20260507082051 | 51 | 238 | 2.0 | 4.0 | 0.00 | 0.00 | 0.00 | 87 | 1019.5 |
| 20260507081049 | 51 | 90 | 3.0 | 4.0 | 0.00 | 0.00 | 0.00 | 91 | 1019.5 |
| 20260507080048 | 50 | 126 | 4.0 | 6.0 | 0.00 | 0.00 | 0.00 | 92 | 1019.4 |
| 20260507075046 | 50 | 151 | 3.0 | 4.0 | 0.00 | 0.00 | 0.00 | 93 | 1019.5 |
| 20260507074045 | 0 | 0.0 | 0.0 | 0.00 | 0.00 | 0.00 | 1019.4 | ||
| 20260507073044 | 0 | 0.0 | 0.0 | 0.00 | 0.00 | 0.00 | 1019.3 | ||
| 20260507072103 | 0 | 0.0 | 0.0 | 0.00 | 0.00 | 0.00 | 1019.2 | ||
| 20260507071041 | 0 | 0.0 | 0.0 | 0.00 | 0.00 | 0.00 | 1019.3 | ||
| 20260507070101 | 0 | 0.0 | 0.0 | 0.00 | 0.00 | 0.00 | 1019.2 | ||
| 20260507065039 | 0 | 0.0 | 0.0 | 0.00 | 0.00 | 0.00 | 1019.1 | ||
| 20260507064038 | 48 | 125 | 1.0 | 2.0 | 0.00 | 0.00 | 0.00 | 95 | 1019.1 |
| 20260507063057 | 48 | 131 | 2.0 | 4.0 | 0.00 | 0.00 | 0.00 | 95 | 1018.9 |
| 20260507062037 | 48 | 154 | 2.0 | 3.0 | 0.00 | 0.00 | 0.00 | 96 | 1018.9 |
| 20260507061035 | 48 | 122 | 2.0 | 4.0 | 0.00 | 0.00 | 0.00 | 95 | 1018.8 |
| 20260507060034 | 48 | 162 | 3.0 | 5.0 | 0.00 | 0.00 | 0.00 | 95 | 1018.7 |
| 20260507055033 | 47 | 129 | 5.0 | 5.0 | 0.00 | 0.00 | 0.00 | 96 | 1018.7 |
| 20260507054031 | 47 | 153 | 3.0 | 5.0 | 0.00 | 0.00 | 0.00 | 96 | 1018.5 |
| 20260507053030 | 47 | 147 | 3.0 | 5.0 | 0.00 | 0.00 | 0.00 | 97 | 1018.4 |
| 20260507052030 | 47 | 44 | 2.0 | 4.0 | 0.00 | 0.00 | 0.00 | 97 | 1018.3 |
| 20260507051027 | 47 | 158 | 3.0 | 4.0 | 0.00 | 0.00 | 0.00 | 97 | 1018.3 |
| 20260507050027 | 47 | 146 | 2.0 | 3.0 | 0.00 | 0.00 | 0.00 | 97 | 1018.3 |
| 20260507045026 | 47 | 112 | 3.0 | 5.0 | 0.00 | 0.00 | 0.00 | 97 | 1018.1 |
| 20260507044044 | 46 | 115 | 3.0 | 3.0 | 0.00 | 0.00 | 0.00 | 97 | 1017.9 |
| 20260507043023 | 46 | 154 | 3.0 | 4.0 | 0.00 | 0.00 | 0.00 | 97 | 1018.0 |
| 20260507042022 | 46 | 132 | 3.0 | 5.0 | 0.00 | 0.00 | 0.00 | 98 | 1017.9 |
| 20260507041020 | 46 | 131 | 4.0 | 4.0 | 0.00 | 0.00 | 0.00 | 98 | 1017.8 |
| 20260507040020 | 46 | 131 | 4.0 | 4.0 | 0.00 | 0.00 | 0.00 | 98 | 1017.7 |
| 20260507035018 | 46 | 122 | 3.0 | 4.0 | 0.00 | 0.00 | 0.00 | 98 | 1017.7 |
| 20260507034017 | 46 | 95 | 3.0 | 5.0 | 0.00 | 0.00 | 0.00 | 98 | 1017.6 |
| 20260507033016 | 46 | 134 | 3.0 | 4.0 | 0.00 | 0.00 | 0.00 | 97 | 1017.5 |
| 20260507032115 | 46 | 129 | 3.0 | 4.0 | 0.00 | 0.00 | 0.00 | 97 | 1017.6 |
| 20260507031114 | 46 | 117 | 2.0 | 4.0 | 0.00 | 0.00 | 0.00 | 97 | 1017.5 |
| 20260507030113 | 46 | 138 | 2.0 | 4.0 | 0.00 | 0.00 | 0.00 | 98 | 1017.5 |
| 20260507025231 | 45 | 106 | 2.0 | 4.0 | 0.00 | 0.00 | 0.00 | 98 | 1017.5 |
| 20260507024110 | 45 | 94 | 1.0 | 3.0 | 0.00 | 0.00 | 0.00 | 98 | 1017.5 |
| 20260507023109 | 45 | 159 | 3.0 | 4.0 | 0.00 | 0.00 | 0.00 | 98 | 1017.4 |
| 20260507022108 | 45 | 89 | 2.0 | 3.0 | 0.00 | 0.00 | 0.00 | 97 | 1017.3 |
| 20260507021107 | 45 | 76 | 2.0 | 4.0 | 0.00 | 0.00 | 0.00 | 97 | 1017.3 |
| 20260507020126 | 0 | 0.0 | 0.0 | 0.00 | 0.00 | 0.00 | 1017.4 | ||
| 20260507015124 | 0 | 0.0 | 0.0 | 0.00 | 0.00 | 0.00 | 1017.3 | ||
| 20260507014102 | 44 | 327 | 2.0 | 3.0 | 0.00 | 0.00 | 0.00 | 97 | 1017.2 |
| 20260507013102 | 44 | 97 | 4.0 | 6.0 | 0.00 | 0.00 | 0.00 | 97 | 1017.2 |
| 20260507012100 | 44 | 128 | 1.0 | 3.0 | 0.00 | 0.00 | 0.00 | 97 | 1016.9 |
| 20260507011100 | 44 | 111 | 0.0 | 4.0 | 0.00 | 0.00 | 0.00 | 97 | 1017.0 |
| 20260507010058 | 44 | 140 | 2.0 | 3.0 | 0.00 | 0.00 | 0.00 | 97 | 1016.9 |
| 20260507005057 | 44 | 122 | 2.0 | 4.0 | 0.00 | 0.00 | 0.00 | 97 | 1017.0 |
| 20260507004056 | 44 | 124 | 2.0 | 4.0 | 0.00 | 0.00 | 0.00 | 97 | 1016.9 |
| 20260507003054 | 44 | 147 | 3.0 | 4.0 | 0.00 | 0.00 | 0.00 | 97 | 1016.9 |
| 20260507002134 | 44 | 88 | 1.0 | 2.0 | 0.00 | 0.00 | 0.00 | 97 | 1016.9 |
| 20260507001052 | 43 | 144 | 2.0 | 6.0 | 0.00 | 0.00 | 0.00 | 97 | 1016.9 |
| 20260507000112 | 43 | 142 | 4.0 | 6.0 | 0.00 | 0.00 | 0.00 | 97 | 1017.0 |
| 20260506235051 | 43 | 148 | 4.0 | 6.0 | 0.00 | 0.00 | 0.00 | 97 | 1017.0 |
| 20260506234129 | 43 | 142 | 4.0 | 6.0 | 0.00 | 0.00 | 0.00 | 97 | 1017.1 |
| 20260506233047 | 43 | 148 | 5.0 | 6.0 | 0.00 | 0.00 | 0.00 | 97 | 1017.0 |
| 20260506232046 | 43 | 140 | 3.0 | 5.0 | 0.00 | 0.00 | 0.00 | 97 | 1016.9 |
| 20260506231045 | 43 | 151 | 3.0 | 3.0 | 0.00 | 0.00 | 0.00 | 97 | 1016.8 |
| 20260506230044 | 43 | 152 | 4.0 | 4.0 | 0.00 | 0.00 | 0.00 | 97 | 1016.7 |
| 20260506225043 | 43 | 126 | 3.0 | 3.0 | 0.00 | 0.00 | 0.00 | 97 | 1016.7 |
| 20260506224042 | 43 | 150 | 3.0 | 3.0 | 0.00 | 0.00 | 0.00 | 97 | 1016.8 |
| 20260506223040 | 43 | 151 | 3.0 | 3.0 | 0.00 | 0.00 | 0.00 | 97 | 1016.7 |